Dodge City, KS

5:29 AM CST on December 10, 2016 (GMT -0600)
Dodge City Regional

Weather History for KDDC - December, 2012

Change the Weather History Date:

Thursday, December 6, 2012

  Actual Average Record
Temperature  
Mean Temperature 41 °F -  
Max Temperature 55 °F 45 °F 81 °F (1939)
Min Temperature 27 °F 23 °F -6 °F (1972)
Degree Days  
Heating Degree Days 24    
Moisture  
Dew Point 22 °F    
Average Humidity 45    
Maximum Humidity 66    
Minimum Humidity 18    
Precipitation  
Precipitation 0.00 in - - ()
Sea Level Pressure  
Sea Level Pressure 29.87 in    
Wind  
Wind Speed 12 mph (North)    
Max Wind Speed 26 mph    
Max Gust Speed 34 mph    
Visibility 10 miles    
Events      
Averages and records for this station are not official NWS values.
T = Trace of Precipitation, MM = Missing Value Source: NWS Daily Summary

Daily Weather History Graph

Daily Weather History Graph

Search for Another Location

Airport or City:

Trip Planner

Search our weather history database for the weather conditions in past years. The results will help you decide how hot, cold, wet, or windy it might be!

Date:

Astronomy

Dec. 06, 2012 Rise Set
Actual Time 7:41 AM CST 5:20 PM CST
Civil Twilight 7:12 AM CST 5:49 PM CST
Nautical Twilight 6:39 AM CST 6:22 PM CST
Astronomical Twilight 6:07 AM CST 6:54 PM CST
Moon 12:06 AM CST (12/6) 12:41 PM CST (12/6)
Length of Visible Light 10h 37m
Length of Day
9h 39m
Waning Gibbous, 49% of the Moon is Illuminated
Dec 6
Waning Gibbous
Dec 13
New
Dec 19
First Quarter
Dec 28
Full
Jan 4
Last Quarter

Hourly Weather History & Observations

Time (CST) Temp. Windchill Dew Point Humidity Pressure Visibility Wind Dir Wind Speed Gust Speed Precip Events Conditions
12:52 AM 42.1 °F 34.9 °F 21.0 °F 43% 29.82 in 10.0 mi South 13.8 mph - N/A   Clear
1:52 AM 42.1 °F 34.2 °F 21.9 °F 45% 29.79 in 10.0 mi South 16.1 mph - N/A   Clear
2:52 AM 41.0 °F 33.1 °F 21.9 °F 47% 29.77 in 10.0 mi South 15.0 mph - N/A   Clear
3:52 AM 39.9 °F 32.9 °F 21.9 °F 49% 29.75 in 10.0 mi South 11.5 mph - N/A   Clear
4:52 AM 39.0 °F - 21.9 °F 50% 29.78 in 10.0 mi Calm Calm - N/A   Clear
5:52 AM 34.0 °F 27.2 °F 21.0 °F 59% 29.80 in 10.0 mi NE 8.1 mph - N/A   Clear
6:52 AM 30.9 °F 25.2 °F 19.9 °F 64% 29.82 in 10.0 mi North 5.8 mph - N/A   Clear
7:52 AM 30.0 °F 25.2 °F 19.9 °F 66% 29.83 in 10.0 mi North 4.6 mph - N/A   Clear
8:52 AM 36.0 °F 33.3 °F 21.9 °F 57% 29.86 in 10.0 mi NNW 3.5 mph - N/A   Clear
9:52 AM 43.0 °F 37.2 °F 25.0 °F 49% 29.84 in 10.0 mi North 10.4 mph - N/A   Clear
10:52 AM 50.0 °F - 23.0 °F 35% 29.84 in 10.0 mi North 19.6 mph 26.5 mph N/A   Clear
11:52 AM 54.0 °F - 23.0 °F 30% 29.85 in 10.0 mi North 26.5 mph 33.4 mph N/A   Clear
12:52 PM 54.0 °F - 25.0 °F 33% 29.85 in 10.0 mi NNE 25.3 mph 34.5 mph N/A   Clear
1:52 PM 53.1 °F - 28.0 °F 38% 29.85 in 10.0 mi NNE 23.0 mph 31.1 mph N/A   Clear
2:52 PM 53.1 °F - 28.9 °F 40% 29.86 in 10.0 mi NNE 25.3 mph 34.5 mph N/A   Clear
3:52 PM 51.1 °F - 28.0 °F 41% 29.88 in 10.0 mi NNE 20.7 mph 31.1 mph N/A   Clear
4:52 PM 48.9 °F - 26.1 °F 41% 29.91 in 10.0 mi NNE 13.8 mph 21.9 mph N/A   Clear
5:52 PM 44.1 °F 38.1 °F 19.9 °F 38% 29.93 in 10.0 mi North 11.5 mph - N/A   Clear
6:52 PM 39.9 °F 32.9 °F 19.9 °F 45% 29.96 in 10.0 mi North 11.5 mph - N/A   Clear
7:52 PM 37.9 °F 31.5 °F 21.0 °F 51% 29.99 in 10.0 mi North 9.2 mph - N/A   Clear
8:52 PM 37.0 °F 31.6 °F 19.9 °F 50% 29.99 in 10.0 mi NNE 6.9 mph - N/A   Clear
9:52 PM 32.0 °F 26.4 °F 19.0 °F 59% 29.99 in 10.0 mi North 5.8 mph - N/A   Clear
10:52 PM 32.0 °F 28.7 °F 19.0 °F 59% 29.97 in 10.0 mi NNW 3.5 mph - N/A   Partly Cloudy
11:52 PM 35.1 °F 31.0 °F 19.0 °F 52% 29.96 in 10.0 mi NNW 4.6 mph - N/A   Overcast